Year,Month,Day,Hour,Minute,Value (Times are PST for temperature in C)
2013,08,06,00,00,15.60
2013,08,06,00,01,15.60
2013,08,06,00,02,15.60
2013,08,06,00,03,15.60
2013,08,06,00,04,15.60
2013,08,06,00,05,15.60
2013,08,06,00,06,15.60
2013,08,06,00,07,15.60
2013,08,06,00,08,15.50
2013,08,06,00,09,15.50
2013,08,06,00,10,15.50
2013,08,06,00,11,15.50
2013,08,06,00,12,15.50
2013,08,06,00,13,15.50
2013,08,06,00,14,15.40
2013,08,06,00,15,15.40
2013,08,06,00,16,15.40
2013,08,06,00,17,15.40
2013,08,06,00,18,15.30
2013,08,06,00,19,15.30
2013,08,06,00,20,15.30
2013,08,06,00,21,15.30
2013,08,06,00,22,15.30
2013,08,06,00,23,15.30
2013,08,06,00,24,15.30
2013,08,06,00,25,15.30
2013,08,06,00,26,15.20
2013,08,06,00,27,15.20
2013,08,06,00,28,15.20
2013,08,06,00,29,15.20
2013,08,06,00,30,15.20
2013,08,06,00,31,15.10
2013,08,06,00,32,15.10
2013,08,06,00,33,15.10
2013,08,06,00,34,15.10
2013,08,06,00,35,15.00
2013,08,06,00,36,15.00
2013,08,06,00,37,15.00
2013,08,06,00,38,15.00
2013,08,06,00,39,14.90
2013,08,06,00,40,14.90
2013,08,06,00,41,14.90
2013,08,06,00,42,14.90
2013,08,06,00,43,14.90
2013,08,06,00,44,14.80
2013,08,06,00,45,14.80
2013,08,06,00,46,14.80
2013,08,06,00,47,14.80
2013,08,06,00,48,14.80
2013,08,06,00,49,14.80
2013,08,06,00,50,14.80
2013,08,06,00,51,14.80
2013,08,06,00,52,14.80
2013,08,06,00,53,14.70
2013,08,06,00,54,14.70
2013,08,06,00,55,14.70
2013,08,06,00,56,14.60
2013,08,06,00,57,14.60
2013,08,06,00,58,14.60
2013,08,06,00,59,14.60
2013,08,06,01,00,14.60
2013,08,06,01,01,14.60
2013,08,06,01,02,14.60
2013,08,06,01,03,14.60
2013,08,06,01,04,14.60
2013,08,06,01,05,14.50
2013,08,06,01,06,14.50
2013,08,06,01,07,14.50
2013,08,06,01,08,14.50
2013,08,06,01,09,14.50
2013,08,06,01,10,14.40
2013,08,06,01,11,14.40
2013,08,06,01,12,14.40
2013,08,06,01,13,14.40
2013,08,06,01,14,14.40
2013,08,06,01,15,14.40
2013,08,06,01,16,14.40
2013,08,06,01,17,14.40
2013,08,06,01,18,14.40
2013,08,06,01,19,14.50
2013,08,06,01,20,14.40
2013,08,06,01,21,14.40
2013,08,06,01,22,14.40
2013,08,06,01,23,14.40
2013,08,06,01,24,14.40
2013,08,06,01,25,14.40
2013,08,06,01,26,14.40
2013,08,06,01,27,14.40
2013,08,06,01,28,14.40
2013,08,06,01,29,14.40
2013,08,06,01,30,14.40
2013,08,06,01,31,14.40
2013,08,06,01,32,14.30
2013,08,06,01,33,14.30
2013,08,06,01,34,14.20
2013,08,06,01,35,14.20
2013,08,06,01,36,14.20
2013,08,06,01,37,14.20
2013,08,06,01,38,14.20
2013,08,06,01,39,14.20
2013,08,06,01,40,14.20
2013,08,06,01,41,14.20
2013,08,06,01,42,14.20
2013,08,06,01,43,14.20
2013,08,06,01,44,14.10
2013,08,06,01,45,14.10
2013,08,06,01,46,14.00
2013,08,06,01,47,14.00
2013,08,06,01,48,14.00
2013,08,06,01,49,13.90
2013,08,06,01,50,13.90
2013,08,06,01,51,13.90
2013,08,06,01,52,13.90
2013,08,06,01,53,13.90
2013,08,06,01,54,13.90
2013,08,06,01,55,13.80
2013,08,06,01,56,13.80
2013,08,06,01,57,13.80
2013,08,06,01,58,13.80
2013,08,06,01,59,13.80
2013,08,06,02,00,13.70
2013,08,06,02,01,13.70
2013,08,06,02,02,13.70
2013,08,06,02,03,13.70
2013,08,06,02,04,13.70
2013,08,06,02,05,13.70
2013,08,06,02,06,13.70
2013,08,06,02,07,13.70
2013,08,06,02,08,13.70
2013,08,06,02,09,13.70
2013,08,06,02,10,13.70
2013,08,06,02,11,13.70
2013,08,06,02,12,13.70
2013,08,06,02,13,13.60
2013,08,06,02,14,13.60
2013,08,06,02,15,13.60
2013,08,06,02,16,13.60
2013,08,06,02,17,13.50
2013,08,06,02,18,13.50
2013,08,06,02,19,13.50
2013,08,06,02,20,13.50
2013,08,06,02,21,13.50
2013,08,06,02,22,13.40
2013,08,06,02,23,13.40
2013,08,06,02,24,13.40
2013,08,06,02,25,13.30
2013,08,06,02,26,13.30
2013,08,06,02,27,13.30
2013,08,06,02,28,13.30
2013,08,06,02,29,13.30
2013,08,06,02,30,13.30
2013,08,06,02,31,13.30
2013,08,06,02,32,13.30
2013,08,06,02,33,13.30
2013,08,06,02,34,13.30
2013,08,06,02,35,13.30
2013,08,06,02,36,13.20
2013,08,06,02,37,13.20
2013,08,06,02,38,13.20
2013,08,06,02,39,13.20
2013,08,06,02,40,13.20
2013,08,06,02,41,13.20
2013,08,06,02,42,13.20
2013,08,06,02,43,13.10
2013,08,06,02,44,13.10
2013,08,06,02,45,13.10
2013,08,06,02,46,13.10
2013,08,06,02,47,13.10
2013,08,06,02,48,13.10
2013,08,06,02,49,13.10
2013,08,06,02,50,13.00
2013,08,06,02,51,13.00
2013,08,06,02,52,13.00
2013,08,06,02,53,12.90
2013,08,06,02,54,12.90
2013,08,06,02,55,12.90
2013,08,06,02,56,12.90
2013,08,06,02,57,12.80
2013,08,06,02,58,12.80
2013,08,06,02,59,12.80
2013,08,06,03,00,12.80
2013,08,06,03,01,12.80
2013,08,06,03,02,12.80
2013,08,06,03,03,12.80
2013,08,06,03,04,12.80
2013,08,06,03,05,12.70
2013,08,06,03,06,12.70
2013,08,06,03,07,12.70
2013,08,06,03,08,12.60
2013,08,06,03,09,12.60
2013,08,06,03,10,12.60
2013,08,06,03,11,12.60
2013,08,06,03,12,12.60
2013,08,06,03,13,12.50
2013,08,06,03,14,12.50
2013,08,06,03,15,12.50
2013,08,06,03,16,12.40
2013,08,06,03,17,12.40
2013,08,06,03,18,12.40
2013,08,06,03,19,12.40
2013,08,06,03,20,12.40
2013,08,06,03,21,12.40
2013,08,06,03,22,12.40
2013,08,06,03,23,12.40
2013,08,06,03,24,12.30
2013,08,06,03,25,12.30
2013,08,06,03,26,12.30
2013,08,06,03,27,12.30
2013,08,06,03,28,12.30
2013,08,06,03,29,12.40
2013,08,06,03,30,12.40
2013,08,06,03,31,12.40
2013,08,06,03,32,12.40
2013,08,06,03,33,12.40
2013,08,06,03,34,12.40
2013,08,06,03,35,12.40
2013,08,06,03,36,12.40
2013,08,06,03,37,12.30
2013,08,06,03,38,12.30
2013,08,06,03,39,12.30
2013,08,06,03,40,12.30
2013,08,06,03,41,12.30
2013,08,06,03,42,12.30
2013,08,06,03,43,12.30
2013,08,06,03,44,12.30
2013,08,06,03,45,12.30
2013,08,06,03,46,12.30
2013,08,06,03,47,12.30
2013,08,06,03,48,12.30
2013,08,06,03,49,12.30
2013,08,06,03,50,12.30
2013,08,06,03,51,12.30
2013,08,06,03,52,12.30
2013,08,06,03,53,12.20
2013,08,06,03,54,12.20
2013,08,06,03,55,12.20
2013,08,06,03,56,12.20
2013,08,06,03,57,12.20
2013,08,06,03,58,12.20
2013,08,06,03,59,12.20
2013,08,06,04,00,12.10
2013,08,06,04,01,12.10
2013,08,06,04,02,12.10
2013,08,06,04,03,12.10
2013,08,06,04,04,12.00
2013,08,06,04,05,12.00
2013,08,06,04,06,12.00
2013,08,06,04,07,12.00
2013,08,06,04,08,12.00
2013,08,06,04,09,12.00
2013,08,06,04,10,12.00
2013,08,06,04,11,12.00
2013,08,06,04,12,12.00
2013,08,06,04,13,12.00
2013,08,06,04,14,12.00
2013,08,06,04,15,11.90
2013,08,06,04,16,11.90
2013,08,06,04,17,11.90
2013,08,06,04,18,11.90
2013,08,06,04,19,11.90
2013,08,06,04,20,11.90
2013,08,06,04,21,11.90
2013,08,06,04,22,11.90
2013,08,06,04,23,11.90
2013,08,06,04,24,11.90
2013,08,06,04,25,11.80
2013,08,06,04,26,11.80
2013,08,06,04,27,11.80
2013,08,06,04,28,11.80
2013,08,06,04,29,11.80
2013,08,06,04,30,11.80
2013,08,06,04,31,11.80
2013,08,06,04,32,11.80
2013,08,06,04,33,11.80
2013,08,06,04,34,11.80
2013,08,06,04,35,11.80
2013,08,06,04,36,11.80
2013,08,06,04,37,11.80
2013,08,06,04,38,11.80
2013,08,06,04,39,11.80
2013,08,06,04,40,11.80
2013,08,06,04,41,11.80
2013,08,06,04,42,11.80
2013,08,06,04,43,11.80
2013,08,06,04,44,11.80
2013,08,06,04,45,11.80
2013,08,06,04,46,11.80
2013,08,06,04,47,11.80
2013,08,06,04,48,11.80
2013,08,06,04,49,11.80
2013,08,06,04,50,11.80
2013,08,06,04,51,11.80
2013,08,06,04,52,11.80
2013,08,06,04,53,11.80
2013,08,06,04,54,11.80
2013,08,06,04,55,11.80
2013,08,06,04,56,11.80
2013,08,06,04,57,11.70
2013,08,06,04,58,11.70
2013,08,06,04,59,11.70
2013,08,06,05,00,11.70
2013,08,06,05,01,11.70
2013,08,06,05,02,11.60
2013,08,06,05,03,11.60
2013,08,06,05,04,11.60
2013,08,06,05,05,11.60
2013,08,06,05,06,11.60
2013,08,06,05,07,11.60
2013,08,06,05,08,11.60
2013,08,06,05,09,11.60
2013,08,06,05,10,11.60
2013,08,06,05,11,11.60
2013,08,06,05,12,11.60
2013,08,06,05,13,11.60
2013,08,06,05,14,11.50
2013,08,06,05,15,11.40
2013,08,06,05,16,11.40
2013,08,06,05,17,11.40
2013,08,06,05,18,11.40
2013,08,06,05,19,11.40
2013,08,06,05,20,11.40
2013,08,06,05,21,11.40
2013,08,06,05,22,11.40
2013,08,06,05,23,11.40
2013,08,06,05,24,11.40
2013,08,06,05,25,11.40
2013,08,06,05,26,11.40
2013,08,06,05,27,11.30
2013,08,06,05,28,11.30
2013,08,06,05,29,11.30
2013,08,06,05,30,11.30
2013,08,06,05,31,11.30
2013,08,06,05,32,11.30
2013,08,06,05,33,11.30
2013,08,06,05,34,11.30
2013,08,06,05,35,11.30
2013,08,06,05,36,11.30
2013,08,06,05,37,11.30
2013,08,06,05,38,11.30
2013,08,06,05,39,11.30
2013,08,06,05,40,11.30
2013,08,06,05,41,11.30
2013,08,06,05,42,11.20
2013,08,06,05,43,11.20
2013,08,06,05,44,11.20
2013,08,06,05,45,11.20
2013,08,06,05,46,11.20
2013,08,06,05,47,11.20
2013,08,06,05,48,11.20
2013,08,06,05,49,11.20
2013,08,06,05,50,11.20
2013,08,06,05,51,11.10
2013,08,06,05,52,11.10
2013,08,06,05,53,11.10
2013,08,06,05,54,11.10
2013,08,06,05,55,11.10
2013,08,06,05,56,11.10
2013,08,06,05,57,11.10
2013,08,06,05,58,11.10
2013,08,06,05,59,11.10
2013,08,06,06,00,11.10
2013,08,06,06,01,11.10
2013,08,06,06,02,11.10
2013,08,06,06,03,11.10
2013,08,06,06,04,11.10
2013,08,06,06,05,11.10
2013,08,06,06,06,11.10
2013,08,06,06,07,11.10
2013,08,06,06,08,11.10
2013,08,06,06,09,11.10
2013,08,06,06,10,11.10
2013,08,06,06,11,11.10
2013,08,06,06,12,11.10
2013,08,06,06,13,11.10
2013,08,06,06,14,11.20
2013,08,06,06,15,11.20
2013,08,06,06,16,11.20
2013,08,06,06,17,11.20
2013,08,06,06,18,11.30
2013,08,06,06,19,11.30
2013,08,06,06,20,11.30
2013,08,06,06,21,11.40
2013,08,06,06,22,11.40
2013,08,06,06,23,11.40
2013,08,06,06,24,11.40
2013,08,06,06,25,11.40
2013,08,06,06,26,11.50
2013,08,06,06,27,11.60
2013,08,06,06,28,11.60
2013,08,06,06,29,11.60
2013,08,06,06,30,11.60
2013,08,06,06,31,11.70
2013,08,06,06,32,11.70
2013,08,06,06,33,11.80
2013,08,06,06,34,11.80
2013,08,06,06,35,11.90
2013,08,06,06,36,12.00
2013,08,06,06,37,12.00
2013,08,06,06,38,12.00
2013,08,06,06,39,12.10
2013,08,06,06,40,12.20
2013,08,06,06,41,12.20
2013,08,06,06,42,12.30
2013,08,06,06,43,12.30
2013,08,06,06,44,12.30
2013,08,06,06,45,12.40
2013,08,06,06,46,12.50
2013,08,06,06,47,12.50
2013,08,06,06,48,12.60
2013,08,06,06,49,12.60
2013,08,06,06,50,12.70
2013,08,06,06,51,12.70
2013,08,06,06,52,12.80
2013,08,06,06,53,12.80
2013,08,06,06,54,12.80
2013,08,06,06,55,12.80
2013,08,06,06,56,12.90
2013,08,06,06,57,13.00
2013,08,06,06,58,13.00
2013,08,06,06,59,13.10
2013,08,06,07,00,13.10
2013,08,06,07,01,13.10
2013,08,06,07,02,13.10
2013,08,06,07,03,13.20
2013,08,06,07,04,13.20
2013,08,06,07,05,13.20
2013,08,06,07,06,13.20
2013,08,06,07,07,13.30
2013,08,06,07,08,13.30
2013,08,06,07,09,13.30
2013,08,06,07,10,13.30
2013,08,06,07,11,13.20
2013,08,06,07,12,13.20
2013,08,06,07,13,13.20
2013,08,06,07,14,13.20
2013,08,06,07,15,13.20
2013,08,06,07,16,13.20
2013,08,06,07,17,13.30
2013,08,06,07,18,13.30
2013,08,06,07,19,13.30
2013,08,06,07,20,13.30
2013,08,06,07,21,13.30
2013,08,06,07,22,13.30
2013,08,06,07,23,13.30
2013,08,06,07,24,13.30
2013,08,06,07,25,13.30
2013,08,06,07,26,13.30
2013,08,06,07,27,13.30
2013,08,06,07,28,13.30
2013,08,06,07,29,13.30
2013,08,06,07,30,13.20
2013,08,06,07,31,13.20
2013,08,06,07,32,13.10
2013,08,06,07,33,13.10
2013,08,06,07,34,13.10
2013,08,06,07,35,13.10
2013,08,06,07,36,13.20
2013,08,06,07,37,13.20
2013,08,06,07,38,13.30
2013,08,06,07,39,13.30
2013,08,06,07,40,13.30
2013,08,06,07,41,13.30
2013,08,06,07,42,13.30
2013,08,06,07,43,13.20
2013,08,06,07,44,13.20
2013,08,06,07,45,13.20
2013,08,06,07,46,13.10
2013,08,06,07,47,13.10
2013,08,06,07,48,13.10
2013,08,06,07,49,13.20
2013,08,06,07,50,13.30
2013,08,06,07,51,13.30
2013,08,06,07,52,13.40
2013,08,06,07,53,13.50
2013,08,06,07,54,13.50
2013,08,06,07,55,13.50
2013,08,06,07,56,13.60
2013,08,06,07,57,13.60
2013,08,06,07,58,13.60
2013,08,06,07,59,13.60
2013,08,06,08,00,13.60
2013,08,06,08,01,13.70
2013,08,06,08,02,13.60
2013,08,06,08,03,13.50
2013,08,06,08,04,13.40
2013,08,06,08,05,13.30
2013,08,06,08,06,13.20
2013,08,06,08,07,13.10
2013,08,06,08,08,13.00
2013,08,06,08,09,13.00
2013,08,06,08,10,12.90
2013,08,06,08,11,12.90
2013,08,06,08,12,12.90
2013,08,06,08,13,12.90
2013,08,06,08,14,13.00
2013,08,06,08,15,13.00
2013,08,06,08,16,13.00
2013,08,06,08,17,13.00
2013,08,06,08,18,13.00
2013,08,06,08,19,13.10
2013,08,06,08,20,13.10
2013,08,06,08,21,13.10
2013,08,06,08,22,13.10
2013,08,06,08,23,13.10
2013,08,06,08,24,13.10
2013,08,06,08,25,13.20
2013,08,06,08,26,13.30
2013,08,06,08,27,13.40
2013,08,06,08,28,13.50
2013,08,06,08,29,13.60
2013,08,06,08,30,13.60
2013,08,06,08,31,13.70
2013,08,06,08,32,13.70
2013,08,06,08,33,13.70
2013,08,06,08,34,13.70
2013,08,06,08,35,13.80
2013,08,06,08,36,13.80
2013,08,06,08,37,13.80
2013,08,06,08,38,13.90
2013,08,06,08,39,13.90
2013,08,06,08,40,14.00
2013,08,06,08,41,14.10
2013,08,06,08,42,14.20
2013,08,06,08,43,14.20
2013,08,06,08,44,14.20
2013,08,06,08,45,14.20
2013,08,06,08,46,14.20
2013,08,06,08,47,14.20
2013,08,06,08,48,14.20
2013,08,06,08,49,14.20
2013,08,06,08,50,14.20
2013,08,06,08,51,14.20
2013,08,06,08,52,14.20
2013,08,06,08,53,14.20
2013,08,06,08,54,14.20
2013,08,06,08,55,14.10
2013,08,06,08,56,14.10
2013,08,06,08,57,14.00
2013,08,06,08,58,14.00
2013,08,06,08,59,13.90
2013,08,06,09,00,13.90
2013,08,06,09,01,13.90
2013,08,06,09,02,13.90
2013,08,06,09,03,13.90
2013,08,06,09,04,13.90
2013,08,06,09,05,13.90
2013,08,06,09,06,13.90
2013,08,06,09,07,13.90
2013,08,06,09,08,13.90
2013,08,06,09,09,13.90
2013,08,06,09,10,13.90
2013,08,06,09,11,14.00
2013,08,06,09,12,14.00
2013,08,06,09,13,14.10
2013,08,06,09,14,14.10
2013,08,06,09,15,14.10
2013,08,06,09,16,14.20
2013,08,06,09,17,14.20
2013,08,06,09,18,14.30
2013,08,06,09,19,14.40
2013,08,06,09,20,14.50
2013,08,06,09,21,14.50
2013,08,06,09,22,14.60
2013,08,06,09,23,14.70
2013,08,06,09,24,14.90
2013,08,06,09,25,15.00
2013,08,06,09,26,15.00
2013,08,06,09,27,15.00
2013,08,06,09,28,15.00
2013,08,06,09,29,15.00
2013,08,06,09,30,15.00
2013,08,06,09,31,15.10
2013,08,06,09,32,15.10
2013,08,06,09,33,15.20
2013,08,06,09,34,15.30
2013,08,06,09,35,15.30
2013,08,06,09,36,15.30
2013,08,06,09,37,15.30
2013,08,06,09,38,15.30
2013,08,06,09,39,15.30
2013,08,06,09,40,15.30
2013,08,06,09,41,15.30
2013,08,06,09,42,15.30
2013,08,06,09,43,15.40
2013,08,06,09,44,15.40
2013,08,06,09,45,15.50
2013,08,06,09,46,15.50
2013,08,06,09,47,15.60
2013,08,06,09,48,15.60
2013,08,06,09,49,15.60
2013,08,06,09,50,15.60
2013,08,06,09,51,15.50
2013,08,06,09,52,15.50
2013,08,06,09,53,15.40
2013,08,06,09,54,15.40
2013,08,06,09,55,15.50
2013,08,06,09,56,15.50
2013,08,06,09,57,15.50
2013,08,06,09,58,15.60
2013,08,06,09,59,15.70
2013,08,06,10,00,15.80
2013,08,06,10,01,15.80
2013,08,06,10,02,15.90
2013,08,06,10,03,16.00
2013,08,06,10,04,16.10
2013,08,06,10,05,16.30
2013,08,06,10,06,16.30
2013,08,06,10,07,16.40
2013,08,06,10,08,16.50
2013,08,06,10,09,16.60
2013,08,06,10,10,16.50
2013,08,06,10,11,16.40
2013,08,06,10,12,16.40
2013,08,06,10,13,16.40
2013,08,06,10,14,16.40
2013,08,06,10,15,16.30
2013,08,06,10,16,16.10
2013,08,06,10,17,16.10
2013,08,06,10,18,16.00
2013,08,06,10,19,15.90
2013,08,06,10,20,15.90
2013,08,06,10,21,15.90
2013,08,06,10,22,15.80
2013,08,06,10,23,15.80
2013,08,06,10,24,15.80
2013,08,06,10,25,15.70
2013,08,06,10,26,15.60
2013,08,06,10,27,15.50
2013,08,06,10,28,15.50
2013,08,06,10,29,15.40
2013,08,06,10,30,15.50
2013,08,06,10,31,15.50
2013,08,06,10,32,15.50
2013,08,06,10,33,15.60
2013,08,06,10,34,15.60
2013,08,06,10,35,15.60
2013,08,06,10,36,15.70
2013,08,06,10,37,15.80
2013,08,06,10,38,15.80
2013,08,06,10,39,15.80
2013,08,06,10,40,15.80
2013,08,06,10,41,15.90
2013,08,06,10,42,16.00
2013,08,06,10,43,16.10
2013,08,06,10,44,15.90
2013,08,06,10,45,15.90
2013,08,06,10,46,15.90
2013,08,06,10,47,15.90
2013,08,06,10,48,16.00
2013,08,06,10,49,16.10
2013,08,06,10,50,16.20
2013,08,06,10,51,16.30
2013,08,06,10,52,16.30
2013,08,06,10,53,16.40
2013,08,06,10,54,16.40
2013,08,06,10,55,16.60
2013,08,06,10,56,16.70
2013,08,06,10,57,16.60
2013,08,06,10,58,16.60
2013,08,06,10,59,16.60
2013,08,06,11,00,16.70
2013,08,06,11,01,16.70
2013,08,06,11,02,16.70
2013,08,06,11,03,16.70
2013,08,06,11,04,16.80
2013,08,06,11,05,16.80
2013,08,06,11,06,16.90
2013,08,06,11,07,17.00
2013,08,06,11,08,17.10
2013,08,06,11,09,17.20
2013,08,06,11,10,17.30
2013,08,06,11,11,17.30
2013,08,06,11,12,17.30
2013,08,06,11,13,17.40
2013,08,06,11,14,17.40
2013,08,06,11,15,17.50
2013,08,06,11,16,17.60
2013,08,06,11,17,17.70
2013,08,06,11,18,17.80
2013,08,06,11,19,17.90
2013,08,06,11,20,18.10
2013,08,06,11,21,18.20
2013,08,06,11,22,18.20
2013,08,06,11,23,18.20
2013,08,06,11,24,18.20
2013,08,06,11,25,18.20
2013,08,06,11,26,18.20
2013,08,06,11,27,18.20
2013,08,06,11,28,18.20
2013,08,06,11,29,18.30
2013,08,06,11,30,18.30
2013,08,06,11,31,18.30
2013,08,06,11,32,18.40
2013,08,06,11,33,18.40
2013,08,06,11,34,18.30
2013,08,06,11,35,18.20
2013,08,06,11,36,18.20
2013,08,06,11,37,18.10
2013,08,06,11,38,18.20
2013,08,06,11,39,18.20
2013,08,06,11,40,18.20
2013,08,06,11,41,18.20
2013,08,06,11,42,18.20
2013,08,06,11,43,18.30
2013,08,06,11,44,18.20
2013,08,06,11,45,18.20
2013,08,06,11,46,18.30
2013,08,06,11,47,18.40
2013,08,06,11,48,18.30
2013,08,06,11,49,18.30
2013,08,06,11,50,18.30
2013,08,06,11,51,18.30
2013,08,06,11,52,18.30
2013,08,06,11,53,18.40
2013,08,06,11,54,18.40
2013,08,06,11,55,18.50
2013,08,06,11,56,18.60
2013,08,06,11,57,18.70
2013,08,06,11,58,18.90
2013,08,06,11,59,18.90
2013,08,06,12,00,19.00
2013,08,06,12,01,19.10
2013,08,06,12,02,19.20
2013,08,06,12,03,19.40
2013,08,06,12,04,19.50
2013,08,06,12,05,19.50
2013,08,06,12,06,19.50
2013,08,06,12,07,19.50
2013,08,06,12,08,19.40
2013,08,06,12,09,19.50
2013,08,06,12,10,19.60
2013,08,06,12,11,19.70
2013,08,06,12,12,19.80
2013,08,06,12,13,19.90
2013,08,06,12,14,20.10
2013,08,06,12,15,20.20
2013,08,06,12,16,20.20
2013,08,06,12,17,20.20
2013,08,06,12,18,20.30
2013,08,06,12,19,20.40
2013,08,06,12,20,20.40
2013,08,06,12,21,20.50
2013,08,06,12,22,20.70
2013,08,06,12,23,20.80
2013,08,06,12,24,20.80
2013,08,06,12,25,20.80
2013,08,06,12,26,20.70
2013,08,06,12,27,20.70
2013,08,06,12,28,20.70
2013,08,06,12,29,20.80
2013,08,06,12,30,20.80
2013,08,06,12,31,20.80
2013,08,06,12,32,21.00
2013,08,06,12,33,21.00
2013,08,06,12,34,21.10
2013,08,06,12,35,21.30
2013,08,06,12,36,21.30
2013,08,06,12,37,21.40
2013,08,06,12,38,21.60
2013,08,06,12,39,21.60
2013,08,06,12,40,21.80
2013,08,06,12,41,21.80
2013,08,06,12,42,21.90
2013,08,06,12,43,21.90
2013,08,06,12,44,22.00
2013,08,06,12,45,22.00
2013,08,06,12,46,22.00
2013,08,06,12,47,22.10
2013,08,06,12,48,22.00
2013,08,06,12,49,21.90
2013,08,06,12,50,22.00
2013,08,06,12,51,21.90
2013,08,06,12,52,22.00
2013,08,06,12,53,22.00
2013,08,06,12,54,22.00
2013,08,06,12,55,22.00
2013,08,06,12,56,21.90
2013,08,06,12,57,21.80
2013,08,06,12,58,21.80
2013,08,06,12,59,21.80
2013,08,06,13,00,21.70
2013,08,06,13,01,21.60
2013,08,06,13,02,21.60
2013,08,06,13,03,21.60
2013,08,06,13,04,21.60
2013,08,06,13,05,21.70
2013,08,06,13,06,21.80
2013,08,06,13,07,22.00
2013,08,06,13,08,22.10
2013,08,06,13,09,22.00
2013,08,06,13,10,22.00
2013,08,06,13,11,21.90
2013,08,06,13,12,21.80
2013,08,06,13,13,21.60
2013,08,06,13,14,21.50
2013,08,06,13,15,21.50
2013,08,06,13,16,21.60
2013,08,06,13,17,21.60
2013,08,06,13,18,21.80
2013,08,06,13,19,22.00
2013,08,06,13,20,22.20
2013,08,06,13,21,22.30
2013,08,06,13,22,22.30
2013,08,06,13,23,22.30
2013,08,06,13,24,22.30
2013,08,06,13,25,22.30
2013,08,06,13,26,22.20
2013,08,06,13,27,22.10
2013,08,06,13,28,22.00
2013,08,06,13,29,21.90
2013,08,06,13,30,21.90
2013,08,06,13,31,21.80
2013,08,06,13,32,21.90
2013,08,06,13,33,21.90
2013,08,06,13,34,21.90
2013,08,06,13,35,21.90
2013,08,06,13,36,22.00
2013,08,06,13,37,22.30
2013,08,06,13,38,22.50
2013,08,06,13,39,22.70
2013,08,06,13,40,22.90
2013,08,06,13,41,23.00
2013,08,06,13,42,23.20
2013,08,06,13,43,23.20
2013,08,06,13,44,23.20
2013,08,06,13,45,23.20
2013,08,06,13,46,23.20
2013,08,06,13,47,23.20
2013,08,06,13,48,23.20
2013,08,06,13,49,23.20
2013,08,06,13,50,23.30
2013,08,06,13,51,23.30
2013,08,06,13,52,23.30
2013,08,06,13,53,23.30
2013,08,06,13,54,23.30
2013,08,06,13,55,23.50
2013,08,06,13,56,23.60
2013,08,06,13,57,23.60
2013,08,06,13,58,23.70
2013,08,06,13,59,23.70
2013,08,06,14,00,23.70
2013,08,06,14,01,23.70
2013,08,06,14,02,23.70
2013,08,06,14,03,23.70
2013,08,06,14,04,23.70
2013,08,06,14,05,23.80
2013,08,06,14,06,23.90
2013,08,06,14,07,23.90
2013,08,06,14,08,23.90
2013,08,06,14,09,23.80
2013,08,06,14,10,23.70
2013,08,06,14,11,23.70
2013,08,06,14,12,23.70
2013,08,06,14,13,23.90
2013,08,06,14,14,23.90
2013,08,06,14,15,23.90
2013,08,06,14,16,23.90
2013,08,06,14,17,23.80
2013,08,06,14,18,23.80
2013,08,06,14,19,23.70
2013,08,06,14,20,23.50
2013,08,06,14,21,23.40
2013,08,06,14,22,23.40
2013,08,06,14,23,23.30
2013,08,06,14,24,23.10
2013,08,06,14,25,22.90
2013,08,06,14,26,22.90
2013,08,06,14,27,22.90
2013,08,06,14,28,23.00
2013,08,06,14,29,23.10
2013,08,06,14,30,23.20
2013,08,06,14,31,23.10
2013,08,06,14,32,23.10
2013,08,06,14,33,23.00
2013,08,06,14,34,22.90
2013,08,06,14,35,22.90
2013,08,06,14,36,22.80
2013,08,06,14,37,22.80
2013,08,06,14,38,22.70
2013,08,06,14,39,22.70
2013,08,06,14,40,22.70
2013,08,06,14,41,22.60
2013,08,06,14,42,22.60
2013,08,06,14,43,22.40
2013,08,06,14,44,22.30
2013,08,06,14,45,22.30
2013,08,06,14,46,22.30
2013,08,06,14,47,22.30
2013,08,06,14,48,22.40
2013,08,06,14,49,22.40
2013,08,06,14,50,22.40
2013,08,06,14,51,22.40
2013,08,06,14,52,22.40
2013,08,06,14,53,22.40
2013,08,06,14,54,22.30
2013,08,06,14,55,22.30
2013,08,06,14,56,22.30
2013,08,06,14,57,22.20
2013,08,06,14,58,22.20
2013,08,06,14,59,22.20
2013,08,06,15,00,22.20
2013,08,06,15,01,22.30
2013,08,06,15,02,22.50
2013,08,06,15,03,22.60
2013,08,06,15,04,22.70
2013,08,06,15,05,22.80
2013,08,06,15,06,23.00
2013,08,06,15,07,23.20
2013,08,06,15,08,23.30
2013,08,06,15,09,23.30
2013,08,06,15,10,23.30
2013,08,06,15,11,23.30
2013,08,06,15,12,23.30
2013,08,06,15,13,23.30
2013,08,06,15,14,23.20
2013,08,06,15,15,23.20
2013,08,06,15,16,23.30
2013,08,06,15,17,23.30
2013,08,06,15,18,23.40
2013,08,06,15,19,23.40
2013,08,06,15,20,23.40
2013,08,06,15,21,23.40
2013,08,06,15,22,23.40
2013,08,06,15,23,23.40
2013,08,06,15,24,23.40
2013,08,06,15,25,23.40
2013,08,06,15,26,23.40
2013,08,06,15,27,23.50
2013,08,06,15,28,23.50
2013,08,06,15,29,23.50
2013,08,06,15,30,23.60
2013,08,06,15,31,23.60
2013,08,06,15,32,23.70
2013,08,06,15,33,23.80
2013,08,06,15,34,23.90
2013,08,06,15,35,23.90
2013,08,06,15,36,24.00
2013,08,06,15,37,24.10
2013,08,06,15,38,24.10
2013,08,06,15,39,24.10
2013,08,06,15,40,24.10
2013,08,06,15,41,24.10
2013,08,06,15,42,23.90
2013,08,06,15,43,23.80
2013,08,06,15,44,23.80
2013,08,06,15,45,23.70
2013,08,06,15,46,23.70
2013,08,06,15,47,23.70
2013,08,06,15,48,23.80
2013,08,06,15,49,23.80
2013,08,06,15,50,23.90
2013,08,06,15,51,24.00
2013,08,06,15,52,24.10
2013,08,06,15,53,24.10
2013,08,06,15,54,24.10
2013,08,06,15,55,24.10
2013,08,06,15,56,24.10
2013,08,06,15,57,24.10
2013,08,06,15,58,24.10
2013,08,06,15,59,24.10
2013,08,06,16,00,24.10
2013,08,06,16,01,24.10
2013,08,06,16,02,24.10
2013,08,06,16,03,24.10
2013,08,06,16,04,23.90
2013,08,06,16,05,23.90
2013,08,06,16,06,23.90
2013,08,06,16,07,23.90
2013,08,06,16,08,24.00
2013,08,06,16,09,24.00
2013,08,06,16,10,24.00
2013,08,06,16,11,24.10
2013,08,06,16,12,24.10
2013,08,06,16,13,24.10
2013,08,06,16,14,24.10
2013,08,06,16,15,24.20
2013,08,06,16,16,24.20
2013,08,06,16,17,24.10
2013,08,06,16,18,24.10
2013,08,06,16,19,24.10
2013,08,06,16,20,24.10
2013,08,06,16,21,24.10
2013,08,06,16,22,24.10
2013,08,06,16,23,24.10
2013,08,06,16,24,24.10
2013,08,06,16,25,24.10
2013,08,06,16,26,24.10
2013,08,06,16,27,24.10
2013,08,06,16,28,24.10
2013,08,06,16,29,24.10
2013,08,06,16,30,24.10
2013,08,06,16,31,24.20
2013,08,06,16,32,24.30
2013,08,06,16,33,24.40
2013,08,06,16,34,24.50
2013,08,06,16,35,24.50
2013,08,06,16,36,24.50
2013,08,06,16,37,24.40
2013,08,06,16,38,24.40
2013,08,06,16,39,24.40
2013,08,06,16,40,24.30
2013,08,06,16,41,24.20
2013,08,06,16,42,24.10
2013,08,06,16,43,24.00
2013,08,06,16,44,23.90
2013,08,06,16,45,23.90
2013,08,06,16,46,23.80
2013,08,06,16,47,23.80
2013,08,06,16,48,23.80
2013,08,06,16,49,23.80
2013,08,06,16,50,23.90
2013,08,06,16,51,23.90
2013,08,06,16,52,24.10
2013,08,06,16,53,24.10
2013,08,06,16,54,24.10
2013,08,06,16,55,24.10
2013,08,06,16,56,24.10
2013,08,06,16,57,24.10
2013,08,06,16,58,24.10
2013,08,06,16,59,24.10
2013,08,06,17,00,24.10
2013,08,06,17,01,24.10
2013,08,06,17,02,24.10
2013,08,06,17,03,24.00
2013,08,06,17,04,23.90
2013,08,06,17,05,23.90
2013,08,06,17,06,23.90
2013,08,06,17,07,24.00
2013,08,06,17,08,24.10
2013,08,06,17,09,24.10
2013,08,06,17,10,24.10
2013,08,06,17,11,24.10
2013,08,06,17,12,24.10
2013,08,06,17,13,24.00
2013,08,06,17,14,23.90
2013,08,06,17,15,23.90
2013,08,06,17,16,23.90
2013,08,06,17,17,24.00
2013,08,06,17,18,24.10
2013,08,06,17,19,24.10